Flag for Canada Weather past 2 weeks in Calgary, Alberta, Canada

Now
54 °F

Passing clouds.


Feels Like: 52 °F
Forecast: 54 / 75 °F
Wind: 7 mph from Northeast

Location: Calgary International

Current Time: Jul 29, 2015 at 6:32:12 AM

Latest Report: Jul 29, 2015 at 5:00 AM


Visibility: 15 mi

Pressure: 30.12 "Hg (26.52 "Hg at 1063m altitude)

Humidity: 58%

Dew point: 39 °F

Location of CalgaryLocation

Historic Weather in Calgary — Graph

°F

Calgary temperature yesterday

Maximum temperature yesterday: 72 °F (at 2:00 PM)
Minimum temperature yesterday: 48 °F (at 3:00 AM)
Average temperature yesterday: 62 °F

Past Weeks' High & Low Weather Summary

 TemperatureHumidityPressure
High82 °F (Jul 18, 5:00 PM)94% (Jul 23, 5:00 AM)30.12 "Hg (Jul 23, 5:00 AM)
Low45 °F (Jul 27, 5:00 AM)21% (Jul 24, 6:00 PM)29.63 "Hg (Jul 21, 7:00 PM)
Average63 °F58%29.90 "Hg
* Reported Jul 14 5:00 AM — Jul 29 5:00 AM, Calgary, Weather by CustomWeather, © 2015

Note: Actual official high and low records may vary slightly from our data, if they occured in-between our weather recording intervals... More about our weather records

Advertising

Calgary weather history for previous 24 hours

 ConditionsComfort  
Time TempWeatherWind HumidityBarometerVisibility
5:00 AM
Wed, Jul 29
54 °FPassing clouds.7 mph58%30.12 "Hg15 mi
4:00 AM59 °FPassing clouds.7 mph45%30.11 "Hg15 mi
3:00 AM63 °FPassing clouds.15 mph39%30.10 "Hg15 mi
2:00 AM61 °FPassing clouds.13 mph45%30.10 "Hg15 mi
1:00 AM63 °FScattered showers. Passing clouds.5 mph49%30.10 "Hg15 mi
12:00 AM63 °FSprinkles. Passing clouds.2 mph56%30.10 "Hg15 mi
11:00 PM
Tue, Jul 28
64 °FPassing clouds.3 mph49%30.09 "Hg15 mi
10:00 PM63 °FScattered clouds.2 mph52%30.09 "Hg15 mi
9:00 PM64 °FScattered clouds.No wind49%30.07 "Hg40 mi
8:00 PM64 °FScattered showers. Scattered clouds.9 mph52%30.07 "Hg40 mi
7:00 PM72 °FPartly sunny.10 mph33%30.04 "Hg40 mi
6:00 PM70 °FPartly sunny.7 mph33%30.04 "Hg40 mi
5:00 PM72 °FBroken clouds.12 mph29%30.03 "Hg40 mi
4:00 PM72 °FBroken clouds.8 mph33%30.03 "Hg40 mi
3:00 PM72 °FBroken clouds.7 mph31%30.03 "Hg40 mi
2:00 PM72 °FScattered clouds.6 mph31%30.03 "Hg40 mi
1:00 PM70 °FScattered clouds.3 mph33%30.04 "Hg40 mi
12:00 PM66 °FPartly sunny.8 mph37%30.05 "Hg40 mi
11:00 AM64 °FScattered clouds.14 mph40%30.06 "Hg40 mi
10:00 AM63 °FPartly sunny.17 mph42%30.08 "Hg40 mi
9:00 AM61 °FPartly sunny.15 mph48%30.08 "Hg40 mi
8:00 AM57 °FPartly sunny.17 mph51%30.08 "Hg40 mi
7:00 AM55 °FPassing clouds.18 mph51%30.06 "Hg40 mi
6:00 AM52 °FPassing clouds.9 mph62%30.06 "Hg40 mi
Weather by CustomWeather, © 2015

See weather overviewHow to use our weather pages